VTI211 VOBL-VABB

Flight info

Callsign VTI211
Flight time 1h 8m
Altitude 38000
Route VAGPU8A VAGPU Q8 AGELA MOLGO2A
Aircraft B789/H-SDE1E2E3FGHIJ2J3J4J5M1RWXY/LB1D1

Departure

Time 2026-05-08 12:43
Airport Kempegowda International Airport Bengaluru (VOBL)

Arrival

Time 2026-05-08 13:52
Airport Chhatrapati Shivaji Maharaj International Airport (VABB)
Time Latitude Longitude Altitude Speed Heading
2026-05-08 12:18 13.19863 77.72024 3017 ft 0 kts 270°
2026-05-08 12:31 13.19863 77.72029 3017 ft 3 kts 270°
2026-05-08 12:31 13.19863 77.72051 3019 ft 3 kts 269°
2026-05-08 12:32 13.19863 77.72071 3023 ft 3 kts 269°
2026-05-08 12:32 13.19863 77.72091 3023 ft 2 kts 275°
2026-05-08 12:32 13.19861 77.72102 3022 ft 1 kts 301°
2026-05-08 12:32 13.19855 77.72108 3023 ft 1 kts 342°
2026-05-08 12:33 13.19847 77.72110 3026 ft 1 kts 355°
2026-05-08 12:33 13.19844 77.72110 3025 ft 0 kts 357°
2026-05-08 12:35 13.19872 77.72109 3023 ft 7 kts 359°
2026-05-08 12:35 13.19943 77.72109 3017 ft 14 kts
2026-05-08 12:35 13.20059 77.72110 3017 ft 20 kts
2026-05-08 12:35 13.20185 77.72111 3017 ft 13 kts
2026-05-08 12:36 13.20277 77.72111 3017 ft 15 kts
2026-05-08 12:36 13.20392 77.72113 3017 ft 18 kts
2026-05-08 12:36 13.20501 77.72105 3020 ft 9 kts 326°
2026-05-08 12:36 13.20519 77.72041 3017 ft 11 kts 270°
2026-05-08 12:37 13.20519 77.71940 3017 ft 17 kts 270°
2026-05-08 12:37 13.20520 77.71795 3017 ft 23 kts 270°
2026-05-08 12:37 13.20521 77.71607 3017 ft 29 kts 270°
2026-05-08 12:37 13.20523 77.71377 3016 ft 35 kts 270°
2026-05-08 12:38 13.20525 77.71107 3016 ft 41 kts 270°
2026-05-08 12:38 13.20528 77.70799 3016 ft 45 kts 270°
2026-05-08 12:38 13.20532 77.70460 3016 ft 50 kts 270°
2026-05-08 12:38 13.20535 77.70094 3017 ft 49 kts 270°
2026-05-08 12:39 13.20538 77.69770 3017 ft 45 kts 270°
2026-05-08 12:39 13.20540 77.69431 3016 ft 50 kts 270°
2026-05-08 12:39 13.20543 77.69071 3016 ft 46 kts 270°
2026-05-08 12:39 13.20547 77.68726 3017 ft 46 kts 270°
2026-05-08 12:40 13.20561 77.68616 3021 ft 0 kts 317°
2026-05-08 12:40 13.20570 77.68612 3018 ft 2 kts 343°
2026-05-08 12:40 13.20579 77.68613 3017 ft 2 kts
2026-05-08 12:40 13.20592 77.68614 3017 ft 0 kts
2026-05-08 12:41 13.20597 77.68614 3017 ft 3 kts
2026-05-08 12:41 13.20640 77.68616 3017 ft 10 kts
2026-05-08 12:42 13.20711 77.68648 3016 ft 8 kts 55°
2026-05-08 12:42 13.20719 77.68720 3016 ft 13 kts 91°
2026-05-08 12:42 13.20718 77.68841 3016 ft 28 kts 90°
2026-05-08 12:42 13.20716 77.69303 3017 ft 103 kts 90°
2026-05-08 12:43 13.20707 77.70281 3018 ft 169 kts 90°
2026-05-08 12:43 13.20702 77.71665 3197 ft 212 kts 90°
2026-05-08 12:43 13.20811 77.73218 3660 ft 228 kts 73°
2026-05-08 12:43 13.21650 77.74615 4125 ft 241 kts 54°
2026-05-08 12:44 13.22683 77.76069 4586 ft 263 kts 57°
2026-05-08 12:44 13.23662 77.77691 5055 ft 272 kts 61°
2026-05-08 12:44 13.24590 77.79411 5541 ft 270 kts 61°
2026-05-08 12:44 13.25521 77.81094 6012 ft 283 kts 58°
2026-05-08 12:45 13.26915 77.82581 6519 ft 290 kts 35°
2026-05-08 12:45 13.28759 77.83394 6970 ft 296 kts 14°
2026-05-08 12:45 13.30856 77.83506 7299 ft 305 kts
2026-05-08 12:45 13.32981 77.83075 7937 ft 325 kts 338°
2026-05-08 12:46 13.35018 77.81996 8577 ft 341 kts 333°
2026-05-08 12:46 13.37064 77.80764 9397 ft 342 kts 331°
2026-05-08 12:46 13.39124 77.79514 10140 ft 345 kts 333°
2026-05-08 12:46 13.41232 77.78296 10851 ft 351 kts 333°
2026-05-08 12:47 13.43372 77.77067 11569 ft 352 kts 333°
2026-05-08 12:47 13.45497 77.75826 12288 ft 353 kts 332°
2026-05-08 12:47 13.47651 77.74563 13050 ft 360 kts 332°
2026-05-08 12:47 13.49831 77.73290 13802 ft 364 kts 332°
2026-05-08 12:48 13.52034 77.72006 14465 ft 363 kts 331°
2026-05-08 12:48 13.54244 77.70717 15152 ft 369 kts 331°
2026-05-08 12:48 13.56486 77.69406 15856 ft 373 kts 331°
2026-05-08 12:48 13.58757 77.68079 16580 ft 377 kts 331°
2026-05-08 12:49 13.61050 77.66741 17304 ft 381 kts 330°
2026-05-08 12:49 13.63365 77.65388 18047 ft 384 kts 330°
2026-05-08 12:49 13.65697 77.64025 18721 ft 387 kts 330°
2026-05-08 12:49 13.68036 77.62657 19386 ft 389 kts 330°
2026-05-08 12:50 13.70379 77.61287 20052 ft 390 kts 330°
2026-05-08 12:50 13.72741 77.59906 20747 ft 391 kts 330°
2026-05-08 12:50 13.75111 77.58519 21454 ft 392 kts 330°
2026-05-08 12:50 13.77478 77.57134 22175 ft 391 kts 330°
2026-05-08 12:51 13.79843 77.55750 22912 ft 391 kts 330°
2026-05-08 12:51 13.84552 77.52993 24256 ft 388 kts 330°
2026-05-08 12:51 13.86890 77.51624 24881 ft 386 kts 330°
2026-05-08 12:52 13.89213 77.50263 25533 ft 383 kts 329°
2026-05-08 12:52 13.93808 77.47570 26857 ft 377 kts 329°
2026-05-08 12:52 13.96077 77.46240 27554 ft 373 kts 329°
2026-05-08 12:53 13.98324 77.44922 28103 ft 373 kts 329°
2026-05-08 12:53 14.00609 77.43582 28349 ft 382 kts 329°
2026-05-08 12:53 14.02949 77.42208 28599 ft 391 kts 329°
2026-05-08 12:53 14.05307 77.40824 28827 ft 399 kts 329°
2026-05-08 12:54 14.07743 77.39395 29103 ft 406 kts 328°
2026-05-08 12:54 14.10221 77.37940 29380 ft 413 kts 329°
2026-05-08 12:54 14.12737 77.36462 29676 ft 420 kts 329°
2026-05-08 12:54 14.15292 77.34963 29941 ft 425 kts 328°
2026-05-08 12:55 14.17880 77.33441 30182 ft 431 kts 329°
2026-05-08 12:55 14.20498 77.31902 30427 ft 436 kts 329°
2026-05-08 12:55 14.23153 77.30342 30661 ft 441 kts 329°
2026-05-08 12:55 14.25832 77.28768 30900 ft 446 kts 328°
2026-05-08 12:56 14.28534 77.27177 31145 ft 450 kts 328°
2026-05-08 12:56 14.31265 77.25571 31387 ft 454 kts 328°
2026-05-08 12:56 14.34021 77.23950 31637 ft 457 kts 328°
2026-05-08 12:56 14.36794 77.22316 31877 ft 461 kts 329°
2026-05-08 12:57 14.39583 77.20675 32127 ft 464 kts 328°
2026-05-08 12:57 14.42396 77.19018 32375 ft 467 kts 329°
2026-05-08 12:57 14.45221 77.17353 32634 ft 469 kts 329°
2026-05-08 12:57 14.48063 77.15679 32856 ft 472 kts 329°
2026-05-08 12:58 14.50607 77.14179 33094 ft 474 kts 328°
2026-05-08 12:58 14.53497 77.12474 33356 ft 476 kts 329°
2026-05-08 12:58 14.56377 77.10775 33601 ft 478 kts 328°
2026-05-08 12:58 14.59290 77.09123 33859 ft 480 kts 335°
2026-05-08 12:59 14.62418 77.07907 34118 ft 480 kts 339°
2026-05-08 12:59 14.65572 77.06759 34346 ft 482 kts 339°
2026-05-08 12:59 14.68739 77.05610 34563 ft 483 kts 339°
2026-05-08 12:59 14.71799 77.04492 34787 ft 484 kts 339°
2026-05-08 13:00 14.75054 77.03299 35017 ft 485 kts 339°
2026-05-08 13:00 14.78240 77.02135 35245 ft 486 kts 339°
2026-05-08 13:00 14.81424 77.00973 35468 ft 487 kts 339°
2026-05-08 13:00 14.84621 76.99805 35703 ft 487 kts 339°
2026-05-08 13:01 14.87773 76.98651 35941 ft 487 kts 339°
2026-05-08 13:01 14.90971 76.97480 36151 ft 488 kts 339°
2026-05-08 13:01 14.94171 76.96310 36397 ft 488 kts 339°
2026-05-08 13:01 14.97371 76.95139 36640 ft 488 kts 339°
2026-05-08 13:02 15.00576 76.93965 36868 ft 487 kts 339°
2026-05-08 13:02 15.03768 76.92796 37118 ft 487 kts 339°
2026-05-08 13:02 15.06962 76.91625 37353 ft 487 kts 339°
2026-05-08 13:02 15.10153 76.90456 37598 ft 486 kts 339°
2026-05-08 13:03 15.13337 76.89289 37826 ft 486 kts 339°
2026-05-08 13:03 15.16540 76.88113 37821 ft 491 kts 339°
2026-05-08 13:03 15.23033 76.85731 37846 ft 499 kts 339°
2026-05-08 13:04 15.29634 76.83307 37849 ft 507 kts 339°
2026-05-08 13:04 15.36335 76.80844 37841 ft 514 kts 339°
2026-05-08 13:05 15.43068 76.78369 37841 ft 520 kts 339°
2026-05-08 13:05 15.49927 76.75845 37823 ft 526 kts 339°
2026-05-08 13:06 15.56836 76.73301 37823 ft 528 kts 339°
2026-05-08 13:06 15.63740 76.70757 37823 ft 524 kts 339°
2026-05-08 13:07 15.66975 76.69248 37863 ft 520 kts 327°
2026-05-08 13:07 15.69992 76.67078 37856 ft 518 kts 317°
2026-05-08 13:07 15.74757 76.61510 37841 ft 517 kts 307°
2026-05-08 13:08 15.79185 76.55625 37857 ft 518 kts 306°
2026-05-08 13:08 15.83610 76.49744 37857 ft 518 kts 307°
2026-05-08 13:09 15.88033 76.43864 37857 ft 516 kts 307°
2026-05-08 13:09 15.92443 76.37993 37861 ft 517 kts 307°
2026-05-08 13:10 15.96852 76.32123 37865 ft 514 kts 307°
2026-05-08 13:10 16.01250 76.26258 37865 ft 514 kts 306°
2026-05-08 13:11 16.05642 76.20401 37871 ft 514 kts 306°
2026-05-08 13:11 16.10031 76.14539 37872 ft 514 kts 306°
2026-05-08 13:12 16.14423 76.08671 37876 ft 516 kts 306°
2026-05-08 13:12 16.18813 76.02801 37878 ft 518 kts 306°
2026-05-08 13:13 16.23242 75.96873 37880 ft 518 kts 306°
2026-05-08 13:13 16.27637 75.90986 37878 ft 512 kts 306°
2026-05-08 13:14 16.32011 75.85121 37885 ft 513 kts 306°
2026-05-08 13:14 16.36384 75.79255 37885 ft 513 kts 306°
2026-05-08 13:15 16.40022 75.74369 37882 ft 514 kts 306°
2026-05-08 13:15 16.45154 75.67473 37886 ft 516 kts 306°
2026-05-08 13:16 16.49553 75.61556 37891 ft 516 kts 306°
2026-05-08 13:16 16.53003 75.56913 37890 ft 515 kts 306°
2026-05-08 13:17 16.57371 75.51029 37881 ft 509 kts 307°
2026-05-08 13:17 16.61694 75.45205 37876 ft 508 kts 307°
2026-05-08 13:18 16.66101 75.39425 37876 ft 510 kts 308°
2026-05-08 13:18 16.70503 75.33596 37884 ft 511 kts 307°
2026-05-08 13:19 16.74883 75.27809 37886 ft 511 kts 307°
2026-05-08 13:19 16.79280 75.21993 37883 ft 510 kts 307°
2026-05-08 13:20 16.83666 75.16182 37883 ft 509 kts 307°
2026-05-08 13:20 16.88042 75.10386 37889 ft 507 kts 307°
2026-05-08 13:21 16.92395 75.04609 37881 ft 506 kts 307°
2026-05-08 13:21 16.96752 74.98826 37881 ft 506 kts 307°
2026-05-08 13:22 17.01105 74.93041 37882 ft 507 kts 307°
2026-05-08 13:22 17.05467 74.87242 37878 ft 507 kts 307°
2026-05-08 13:23 17.09821 74.81447 37879 ft 507 kts 307°
2026-05-08 13:23 17.13440 74.76627 37877 ft 507 kts 307°
2026-05-08 13:24 17.17630 74.71042 37872 ft 506 kts 307°
2026-05-08 13:24 17.21965 74.65258 37869 ft 504 kts 307°
2026-05-08 13:25 17.26285 74.59490 37863 ft 504 kts 307°
2026-05-08 13:25 17.30608 74.53713 37860 ft 504 kts 307°
2026-05-08 13:26 17.34915 74.47954 37858 ft 505 kts 307°
2026-05-08 13:26 17.39237 74.42168 37860 ft 505 kts 307°
2026-05-08 13:27 17.41389 74.39286 37613 ft 498 kts 307°
2026-05-08 13:27 17.43523 74.36427 36824 ft 498 kts 307°
2026-05-08 13:27 17.45659 74.33562 36094 ft 498 kts 307°
2026-05-08 13:27 17.47789 74.30706 35393 ft 496 kts 307°
2026-05-08 13:28 17.49913 74.27856 34701 ft 495 kts 307°
2026-05-08 13:28 17.52029 74.25016 34039 ft 494 kts 307°
2026-05-08 13:28 17.54083 74.22257 33327 ft 492 kts 307°
2026-05-08 13:28 17.56226 74.19378 32588 ft 490 kts 307°
2026-05-08 13:29 17.58316 74.16568 31877 ft 488 kts 308°
2026-05-08 13:29 17.60387 74.13784 31181 ft 485 kts 308°
2026-05-08 13:29 17.62452 74.11006 30512 ft 483 kts 308°
2026-05-08 13:29 17.64508 74.08239 29831 ft 480 kts 309°
2026-05-08 13:30 17.66552 74.05488 29077 ft 477 kts 309°
2026-05-08 13:30 17.68557 74.02789 28339 ft 474 kts 309°
2026-05-08 13:30 17.70576 74.00069 27607 ft 471 kts 309°
2026-05-08 13:30 17.72580 73.97366 26915 ft 467 kts 308°
2026-05-08 13:31 17.74569 73.94685 26230 ft 464 kts 308°
2026-05-08 13:31 17.76541 73.92025 25568 ft 460 kts 308°
2026-05-08 13:31 17.78499 73.89383 24900 ft 457 kts 308°
2026-05-08 13:31 17.80440 73.86763 24256 ft 453 kts 308°
2026-05-08 13:32 17.82368 73.84160 23618 ft 449 kts 308°
2026-05-08 13:32 17.84275 73.81584 22885 ft 445 kts 308°
2026-05-08 13:32 17.86165 73.79028 22139 ft 441 kts 308°
2026-05-08 13:32 17.88037 73.76497 21405 ft 438 kts 308°
2026-05-08 13:33 17.89895 73.73984 20683 ft 434 kts 308°
2026-05-08 13:33 17.91737 73.71494 19993 ft 430 kts 308°
2026-05-08 13:33 17.93561 73.69023 19312 ft 426 kts 309°
2026-05-08 13:33 17.95369 73.66577 18644 ft 423 kts 308°
2026-05-08 13:34 17.97167 73.64141 17941 ft 421 kts 309°
2026-05-08 13:34 17.98961 73.61711 17175 ft 420 kts 309°
2026-05-08 13:34 18.00748 73.59288 16432 ft 418 kts 309°
2026-05-08 13:34 18.02521 73.56884 15720 ft 415 kts 309°
2026-05-08 13:35 18.04280 73.54497 15043 ft 412 kts 309°
2026-05-08 13:35 18.05980 73.52190 14851 ft 397 kts 309°
2026-05-08 13:35 18.07653 73.49918 14829 ft 393 kts 309°
2026-05-08 13:35 18.09365 73.47598 14851 ft 415 kts 309°
2026-05-08 13:36 18.11186 73.45128 14853 ft 438 kts 309°
2026-05-08 13:36 18.13068 73.42566 14855 ft 445 kts 309°
2026-05-08 13:36 18.15042 73.40060 14839 ft 446 kts 316°
2026-05-08 13:36 18.17466 73.37994 14440 ft 450 kts 328°
2026-05-08 13:37 18.20217 73.36527 13985 ft 437 kts 339°
2026-05-08 13:37 18.22995 73.35372 13515 ft 424 kts 340°
2026-05-08 13:37 18.25698 73.34244 13010 ft 412 kts 339°
2026-05-08 13:37 18.28296 73.33054 12509 ft 404 kts 338°
2026-05-08 13:38 18.30861 73.31867 12013 ft 401 kts 338°
2026-05-08 13:38 18.33437 73.30720 11125 ft 404 kts 339°
2026-05-08 13:38 18.36038 73.29578 10198 ft 405 kts 339°
2026-05-08 13:38 18.38636 73.28416 9257 ft 406 kts 339°
2026-05-08 13:39 18.41237 73.27244 8289 ft 405 kts 338°
2026-05-08 13:39 18.43747 73.26112 7329 ft 374 kts 339°
2026-05-08 13:39 18.46040 73.25087 6387 ft 343 kts 339°
2026-05-08 13:39 18.48161 73.24143 5405 ft 320 kts 338°
2026-05-08 13:40 18.50095 73.23274 5321 ft 293 kts 338°
2026-05-08 13:40 18.52035 73.22405 5410 ft 306 kts 338°
2026-05-08 13:40 18.53981 73.21534 5524 ft 304 kts 338°
2026-05-08 13:40 18.55926 73.20738 5585 ft 303 kts 345°
2026-05-08 13:41 18.57993 73.20244 5594 ft 305 kts 350°
2026-05-08 13:41 18.60104 73.19811 5596 ft 304 kts 348°
2026-05-08 13:41 18.62125 73.19288 5595 ft 303 kts 346°
2026-05-08 13:41 18.64180 73.18708 5582 ft 299 kts 346°
2026-05-08 13:42 18.66167 73.18177 5564 ft 301 kts 347°
2026-05-08 13:42 18.68229 73.17643 5321 ft 306 kts 346°
2026-05-08 13:42 18.70329 73.17093 5096 ft 327 kts 346°
2026-05-08 13:42 18.72656 73.16477 4908 ft 362 kts 346°
2026-05-08 13:43 18.75121 73.15824 4707 ft 367 kts 346°
2026-05-08 13:43 18.77598 73.15170 4498 ft 366 kts 346°
2026-05-08 13:43 18.80051 73.14523 4281 ft 362 kts 346°
2026-05-08 13:43 18.82496 73.13877 4055 ft 361 kts 346°
2026-05-08 13:44 18.84920 73.13235 3815 ft 359 kts 346°
2026-05-08 13:44 18.87335 73.12598 3605 ft 357 kts 346°
2026-05-08 13:44 18.89738 73.11962 3365 ft 354 kts 346°
2026-05-08 13:44 18.92056 73.11351 3112 ft 328 kts 346°
2026-05-08 13:45 18.94105 73.10809 2923 ft 280 kts 346°
2026-05-08 13:45 18.95852 73.10344 2905 ft 239 kts 346°
2026-05-08 13:45 18.97359 73.09945 2934 ft 215 kts 346°
2026-05-08 13:45 18.98750 73.09578 2916 ft 201 kts 346°
2026-05-08 13:46 19.00102 73.09220 2919 ft 200 kts 346°
2026-05-08 13:46 19.01448 73.08865 2906 ft 199 kts 346°
2026-05-08 13:46 19.02791 73.08508 2910 ft 200 kts 346°
2026-05-08 13:46 19.04139 73.08152 2906 ft 200 kts 345°
2026-05-08 13:47 19.05487 73.07795 2908 ft 200 kts 345°
2026-05-08 13:47 19.06852 73.07432 2909 ft 203 kts 345°
2026-05-08 13:47 19.08111 73.06810 2893 ft 203 kts 321°
2026-05-08 13:47 19.08903 73.05638 2887 ft 195 kts 291°
2026-05-08 13:48 19.09058 73.04268 2907 ft 175 kts 278°
2026-05-08 13:48 19.09082 73.03001 2719 ft 175 kts 275°
2026-05-08 13:48 19.09077 73.01735 2497 ft 171 kts 274°
2026-05-08 13:48 19.09057 73.00504 2287 ft 164 kts 274°
2026-05-08 13:49 19.09039 72.99307 2080 ft 160 kts 274°
2026-05-08 13:49 19.09024 72.98125 1884 ft 163 kts 274°
2026-05-08 13:49 19.09006 72.96932 1677 ft 159 kts 274°
2026-05-08 13:49 19.08991 72.95787 1475 ft 154 kts 272°
2026-05-08 13:50 19.08979 72.94656 1276 ft 154 kts 273°
2026-05-08 13:50 19.08965 72.93499 1076 ft 161 kts 273°
2026-05-08 13:50 19.08946 72.92332 886 ft 155 kts 274°
2026-05-08 13:50 19.08926 72.91220 734 ft 149 kts 272°
2026-05-08 13:51 19.08916 72.90159 548 ft 144 kts 271°
2026-05-08 13:51 19.08893 72.89104 379 ft 144 kts 271°
2026-05-08 13:51 19.08870 72.88034 222 ft 147 kts 271°
2026-05-08 13:51 19.08867 72.86973 51 ft 130 kts 269°
2026-05-08 13:52 19.08859 72.86265 53 ft 75 kts 270°
2026-05-08 13:52 19.08860 72.85789 54 ft 45 kts 274°
2026-05-08 13:52 19.08913 72.85576 48 ft 18 kts 295°
2026-05-08 13:52 19.08946 72.85503 49 ft 0 kts 295°
2026-05-08 13:53 19.08946 72.85502 49 ft 0 kts 295°
2026-05-08 13:53 19.08957 72.85477 50 ft 7 kts 295°
2026-05-08 13:53 19.08984 72.85421 48 ft 0 kts 314°
2026-05-08 13:54 19.09016 72.85413 48 ft 4 kts 15°
2026-05-08 13:54 19.09029 72.85424 50 ft 1 kts 50°
2026-05-08 13:54 19.09031 72.85443 49 ft 5 kts 94°
2026-05-08 13:54 19.09026 72.85509 48 ft 13 kts 94°
2026-05-08 13:55 19.09027 72.85640 54 ft 22 kts 89°
2026-05-08 13:55 19.09030 72.85832 54 ft 30 kts 89°
2026-05-08 13:55 19.09038 72.86370 54 ft 39 kts 89°
2026-05-08 13:56 19.09041 72.86614 49 ft 31 kts 89°
2026-05-08 13:56 19.09045 72.86854 55 ft 30 kts 89°
2026-05-08 13:56 19.09049 72.87094 51 ft 24 kts 89°
2026-05-08 13:56 19.09049 72.87128 51 ft 0 kts 89°
2026-05-08 13:58 19.09049 72.87142 51 ft 6 kts 89°
2026-05-08 13:58 19.09051 72.87218 50 ft 15 kts 87°
2026-05-08 13:58 19.09102 72.87264 48 ft 11 kts 358°
2026-05-08 13:59 19.09193 72.87262 52 ft 11 kts
2026-05-08 13:59 19.09230 72.87283 52 ft 5 kts 64°
2026-05-08 13:59 19.09250 72.87344 52 ft 12 kts 57°
2026-05-08 13:59 19.09310 72.87364 49 ft 12 kts 359°
2026-05-08 14:00 19.09385 72.87344 54 ft 11 kts 313°
2026-05-08 14:00 19.09407 72.87302 49 ft 0 kts 299°
2026-05-08 14:00 19.09408 72.87299 49 ft 3 kts 299°
2026-05-08 14:00 19.09412 72.87291 48 ft 0 kts 299°